KTEXKEGE

Guest
Details From KTEX - Telluride Rgnl
To KEGE - EAGLE CO RGNL
Flight Number -
Tags generated
Created
Modified
Stats Distance 112 nm / 207 km
Max Altitude 7,900 ft / 2,408 m
Waypoints 3
Social Downloads 8
Likes 0
Share VATSIM

Download

Looking for another format? Having issues loading an existing format? Contact us
Advertisement - Login to hide

Notes

Basic altitude profile: - Ascent Rate: 2500ft/min - Ascent Speed: 250kts - Cruise Altitude: 35000ft - Cruise Speed: 420kts - Descent Rate: 1500ft/min - Descent Speed: 250kts Options: - Use NATs: yes - Use PACOTS: yes - Use low airways: yes - Use high airways: yes

Route

KTEX PITMN KEGE

ID Type Via Altitude Latitude Longitude Leg Dist Tot Dist Heading (true) Name
O KTEX APT - 0 ft / 0 m 37.95381˚ -107.90874˚ - 0 nm - Telluride Rgnl
PITMN FIX - 7,900 ft / 2,408 m 39.10074˚ -107.30861˚ 74 nm 74 nm 22° / 22° -
O KEGE APT - 0 ft / 0 m 39.64257˚ -106.91770˚ 37 nm 111 nm 29° / 29° EAGLE CO RGNL

Altitude Profile

Advertisement - Login to hide

KTEX

Details ICAO KTEX (TEX)
Name Telluride Rgnl
Region United States
Timezone America/Denver (UTC-6.0)
Stats Elevation 9,078 ft / 2,767 m (AMSL)
Location 37.953812° -107.908742°
Runways 1
Magnetic Variation 9.377° E

METAR

KTEX 210555Z AUTO 14007KT 10SM CLR 08/M09 A3021 RMK AO2 T00821094 10151 20082

Decode

TAF

KTEX 210530Z 2106/2206 13005KT P6SM FEW080 SCT250 FM211500 16009KT P6SM FEW250 FM211800 17012G22KT P6SM FEW080 SCT110 FM212200 16009KT P6SM SCT060 BKN100

Decode

Departure Runways

ID Width Length Bearing (true) Bearing (mag) Surface Threshold Offset Overrun Length
09 98 ft / 30 m 7,095 ft / 2,163 m 104.96° 95.58° Asphalt 200 ft / 61 m 400 ft / 122 m
27 98 ft / 30 m 7,095 ft / 2,163 m 284.98° 275.60° Asphalt 200 ft / 61 m 400 ft / 122 m

KEGE

Details ICAO KEGE (EGE)
Name EAGLE CO RGNL
Region United States
Timezone America/Denver (UTC-6.0)
Stats Elevation 6,540 ft / 1,993 m (AMSL)
Location 39.642567° -106.917696°
Runways 1
Magnetic Variation 9.121° E

METAR

KEGE 210556Z AUTO 12003KT 10SM CLR 08/01 A3014 RMK AO2 SLP173 T00780006 10183 20078 402390006 51003

Decode

TAF

TAF KEGE 210530Z 2106/2206 VRB03KT P6SM FEW250 FM211900 22005KT P6SM FEW100 SCT250 FM212100 24010KT P6SM FEW110 SCT250 FM220000 20009KT P6SM SCT100 BKN200 AMD LTD TO CLD VIS AND WIND TIL 211300

Decode

Destination Runways

ID Width Length Bearing (true) Bearing (mag) Surface Threshold Offset Overrun Length
07 150 ft / 46 m 7,981 ft / 2,433 m 81.90° 72.78° Asphalt 0 ft / 0 m 0 ft / 0 m
25 150 ft / 46 m 7,981 ft / 2,433 m 261.92° 252.80° Asphalt 0 ft / 0 m 0 ft / 0 m

Approach Navaids

Runway Type Ident Frequency Range Bearing (true) Bearing (mag) Slope Elevation
25 Localiser IESJ 109.75 MHz 18 nm / 33 km 258.91° 249.79° - 6,461 ft / 1,969 m (AMSL)
25 DME IESJ 109.75 MHz 18 nm / 33 km - - - 6,473 ft / 1,973 m (AMSL)

Popular Alternatives